Regional Weather Roundup
Issued by NWS Wakefield, VA

Home | Current Version | Previous Version | Graphics & Text | Print | Product List | Glossary On
Versions: 1 2 3 4 5 6 7 8 9 10 11 12 13 14 15 16 17 18 19 20 21 22 23 24 25 26 27 28 29 30 31 32 33 34 35 36 37 38 39 40 41 42 43 44 45 46 47 48 49 50
975
ASUS41 KAKQ 270814
RWRAKQ

REGIONAL WEATHER ROUNDUP
NATIONAL WEATHER SERVICE WAKEFIELD VA
300 AM EST MON FEB 27 2017

Note: "fair" indicates few or no clouds below 12,000 feet with no
significant weather and/or obstructions to visibility. * = Denotes
station may not report precipitation (e.g., rain,snow,etc.),
thunder or fog.

VAZ042-051-052>054-056-270900-
NORTHERN VIRGINIA

CITY           SKY/WX    TMP DP  RH WIND       PRES   REMARKS
WASH NATIONAL  PTCLDY    39  27  62 SW3       30.35R
DULLES         PTCLDY    25  19  78 E3        30.33R
FORT BELVOIR   CLEAR     27  22  81 CALM      30.35R
QUANTICO       CLEAR     32  28  85 NW6       30.35F
FREDERICKSBRG* CLEAR     30  25  81 CALM      30.34R
STAFFORD*      CLEAR     25  25  98 CALM      30.38S
WARRENTON      CLEAR     24  20  84 CALM      30.33R
CULPEPER*      CLEAR     24  21  87 CALM      30.34S
MANASSAS*      PTCLDY    23  20  88 CALM      30.35R
LEESBURG*      PTCLDY    30  23  74 MISG      30.34S
WINCHESTER     CLEAR     27  18  69 CALM      30.30S
FRONT ROYAL*   PTSUNNY   28  19  69 CALM      30.29F
LURAY*         NOT AVBL
$$

VAZ048-049-060>072-079>083-270900-
CENTRAL AND SOUTH CENTRAL VIRGINIA

CITY           SKY/WX    TMP DP  RH WIND       PRES   REMARKS
RICHMOND       CLEAR     33  27  78 CALM      30.34S
CHESTERFIELD*  FAIR      30  10  43 CALM      30.35S
PETERSBURG*    CLEAR     26  24  95 CALM      30.35F
HANOVER        CLEAR     28  22  78 CALM      30.35S
TAPPAHANNOCK*  CLEAR     29  27  93 CALM      30.35S
QUINTON*       NOT AVBL
CHARLOTTSVILLE CLEAR     31  18  58 NW3       30.31S
GORDONSVILLE*  NOT AVBL
ORANGE*        CLEAR     27  23  86 CALM      30.34R
LOUISA*        CLEAR     28  23  80 CALM      30.31S
BUMPASS*       NOT AVBL
FARMVILLE*     CLEAR     27  26  97 CALM      30.32S
CREWE*         NOT AVBL
FORT PICKETT*  NOT AVBL
CHASE CITY*    NOT AVBL
CLARKSVILLE*   NOT AVBL
SOUTH HILL*    CLEAR     29  28  93 CALM      30.39S
LAWRENCEVILLE* FAIR      32  27  83 CALM      30.34R
EMPORIA*       CLEAR     28  27  93 CALM      30.37R
$$

VAZ088>098-270900-
SOUTHEAST VIRGINIA

CITY           SKY/WX    TMP DP  RH WIND       PRES   REMARKS
NORFOLK        CLEAR     38  33  82 S5        30.36R
VIRGINIA BEACH CLEAR     37  30  75 CALM      30.35S
NORFOLK NAVAL  PTCLDY    41  35  79 S7        30.37S
WEST POINT*    CLEAR     34  31  89 CALM      30.37F
SALUDA*        NOT AVBL
NEWPORT NEWS   CLEAR     34  33  96 CALM      30.36R
LANGLEY AFB    CLEAR     40  37  89 CALM      30.35S
FORT EUSTIS    CLEAR     41  36  81 S6        30.33S
WILLIAMSBURG*  CLEAR     39  36  87 CALM      30.36F
HR EXEC AP*    NOT AVBL
FRANKLIN*      CLEAR     30  28  92 CALM      30.37R
US460-WAKEFLD  CLEAR     30  28  92 CALM      30.36R
$$

VAZ020-022-025-037-045-270900-
WEST CENTRAL AND SOUTHWEST VIRGINIA

CITY           SKY/WX    TMP DP  RH WIND       PRES   REMARKS
STAUNTON*      CLEAR     21  16  80 CALM      30.32R
WAYNESBORO*    NOT AVBL
HOT SPRINGS VA MOCLDY    36   1  23 SW13      30.22R
LYNCHBURG      CLEAR     28  18  66 CALM      30.32S
DANVILLE       CLEAR     28  25  88 CALM      30.32F
SOUTH BOSTON*  FAIR      28  27  96 CALM      30.32F
MARTINSVILLE   CLOUDY    27  21  78 CALM      30.34R
ROANOKE        MOCLDY    31  20  63 CALM      30.32S
BLACKSBURG     CLOUDY    30  21  69 CALM      30.30S
DUBLIN*        CLOUDY    29  20  69 CALM      30.29S
MARION*        CLOUDY    30  20  67 CALM      30.28S
HILLSVILLE*    MOCLDY    36  13  40 S5        30.25R
RICHLANDS*     CLOUDY    37  14  39 CALM      30.23R
WISE*          CLOUDY    37  16  41 CALM      30.22F
ABINGDON*      CLOUDY    34  25  68 E7        30.24F
$$

MDZ021>025-VAZ099-100-270900-
SOUTHERN MARYLAND AND THE DELMARVA PENINSULA

CITY           SKY/WX    TMP DP  RH WIND       PRES   REMARKS
PATUXENT RIVER CLEAR     39  35  86 SE5       30.35S
BAY BRIDGE APT CLEAR     37  32  81 S5        30.36R
LEONARDTOWN    CLEAR     32  32 100 CALM      30.37S
DOVER          CLEAR     30  28  90 S5        30.36R
GEORGETOWN     CLEAR     29  23  78 CALM      30.37R
EASTON         CLEAR     32  25  76 S3        30.40R
CAMBRIDGE      CLEAR     28  27  93 SE5       30.37R
SALISBURY      CLEAR     27  24  89 CALM      30.38R
OCEAN CITY     CLEAR     28  24  85 CALM      30.38R
WALLOPS ISLAND CLEAR     32  29  88 SW3       30.39R
ACCOMACK*      CLEAR     37  33  86 SE5       30.37S
$$

NCZ012>017-030>032-270900-
NORTH CENTRAL AND EASTERN NORTH CAROLINA

CITY           SKY/WX    TMP DP  RH WIND       PRES   REMARKS
ROANOKE RAPIDS FAIR      30  30 100 CALM      30.35S
RALEIGH        PTCLDY    37  23  56 CALM      30.33S
ELIZABETH CITY PTCLDY    39  37  92 S3        30.37S
AHOSKIE*         N/A     30  27  91 CALM      30.37R
EDENTON*       PTCLDY    39  37  93 SE3       30.38R
CURRITUCK*     PTCLDY    39  39 100 CALM      30.37S
KILL DEVIL HLS NOT AVBL
MANTEO         PTCLDY    37  37  98 CALM      30.38S
CAPE HATTERAS  CLEAR     37  32  82 NE3       30.37S
TARBORO*       NOT AVBL
GOLDSBORO      PTCLDY    31  30  96 CALM      30.32F
WASHINGTON     CLEAR     34  29  80 CALM      30.37S
GREENVILLE     CLEAR     34  32  93 CALM      30.37R
NEW BERN       CLEAR     34  32  92 S3        30.37F
WILMINGTON     CLEAR     34  33  96 NE3       30.34F
$$

VAZ048-270900-
ELSEWHERE

CITY           SKY/WX    TMP DP  RH WIND       PRES   REMARKS
HARRISBURG PA  CLEAR     28  23  81 E3        30.31R
BALTIMORE      PTCLDY    28  23  81 CALM      30.34R
ANNAPOLIS      CLEAR     35  32  88 CALM      30.35R
ANDREWS AFB    CLEAR     34  27  76 CALM      30.33R
PHILADELPHIA   CLEAR     31  21  66 S6        30.35R
HENDERSON NC   CLEAR     33  21  60 S3        30.34R
GREENSBORO     PTCLDY    38  23  55 CALM      30.29S
ROCKY MOUNT    CLEAR     30  29  96 CALM      30.35S
$$

VAZ100-270900-
MARINE

STATION/POSITION TIME  TEMP    WIND        PRES    WAVE   SWELL
                       AIR SEA DIR/SP/G            HT/PER HT/PER
                 (UTC) (F)     (DEG/KT/KT) (MB)    (FT/S) (FT/S)
CAPE MAY NJ      0748   39 45  190/  5/  7 1028.0R
LEWES DE         0748   35 45  200/  4/  6 1028.3R
OCEAN-CITY-INLET 0748   39 47   CALM  /  1 1029.0R
WACHAPREAGUE VA  0748   44 52  190/  7/  8 1028.6R
THOMAS POINT MD  0800   43 44  190/ 12/ 14   N/A
GOOSES REEF MD   0800   44 45  170/ 10/ 12 1028.4
COVE POINT MD    0748   42     190/  7/  8 1028.7R
SOLOMONS ISLAND  0748   42 45  130/  3/  4   N/A
BISHOPS HEAD MD  0748   45 47  170/ 11/ 12 1028.5R
PINEY POINT MD   0748          160/ 10/ 12   N/A
POTOMAC MD       0800   44 44  170/ 12/ 14 1027.1    1/ 2
CAMBRIDGE MD     0748   37 47  180/  3/  4 1027.7R
LEWISETTA VA     0748   41 48  130/  3/  3 1027.5R
RAPPAHANNOCK LGT 0748          150/  9/  9 1028.7R
YORK RVR RNG VA  0748   45     180/  9/ 10 1027.2R
YORKTOWN VA      0748   42 49  200/  2/  3 1027.6R
JAMESTOWN VA     0800   41 53  110/  4/  8   N/A     0
DOMINION TERM VA 0748   45     170/  7/  8 1027.9R
KIPTOPEKE VA     0748      50  140/  7/  8   N/A
CHES BAY BRIDGE  0748   45 48  170/  9/ 12 1027.9R
CAPE HENRY VA    0748   43     160/  6/  8   N/A
WILLOUBY STN VA  0748   44     160/  9/ 10 1028.6R
S CRANEY ISL VA  0748   44     180/  8/ 10 1027.8R
CAPE HENRY BUOY  0742      48                N/A     2/ 9
OFFSHORE WE BUOY 0751      48                N/A     3/ 9   2/11
64NM E OF VA BCH 0750   47 50   70/  2/  4 1028.7R   3/ 9   3/ 9
DUCK PIER NC     0748   47 49  130/  7/  8 1027.8F
44100 DUCK FRF   0735      49                N/A     3/ 9   2/11
44056 DUCK FRF   0730      49                N/A     2/10
OREGON INLET NC  0742   46 56   90/  4/  5 1028.5R
HATTERAS NC      0748   51 61   70/  2/  3 1028.0S
DIAMOND SHLS NC  0750   56 71  340/  6/ 12 1028.7R   4/ 9   3/ 9
CAPE LOOKOUT NC  0800   54      60/  6/  8 1027.6F
$$




USA.gov is the U.S. government's official web portal to all federal, state and local government web resources and services.